,,,PA_Meas_PMT16A,,PR_Meas_QMR101_102,,RH_Meas_QMH101,,SR_Meas_QMS101,,TA_Meas_QMH101,,GenWind,,GenWind,
date,time,status,PA,status,PR,status,RH,status,SR,status,TA,status,DirAvg,status,SpdAvg,
2008-06-12, 00:00:04,VALID,1005.33,VALID,0,VALID,92.3934,VALID,0.100563,VALID,24.3459,VALID,342,VALID,0.545313,
2008-06-12, 00:01:04,VALID,1005.28,VALID,0,VALID,92.4315,VALID,0,VALID,24.3478,VALID,346,VALID,0.692187,
2008-06-12, 00:02:04,VALID,1005.25,VALID,0,VALID,92.8587,VALID,0,VALID,24.3265,VALID,346,VALID,0.530469,
2008-06-12, 00:03:04,VALID,1005.25,VALID,0,VALID,92.8664,VALID,0,VALID,24.3088,VALID,349,VALID,0.671484,
2008-06-12, 00:04:04,VALID,1005.19,VALID,0,VALID,92.8816,VALID,0,VALID,24.2486,VALID,338,VALID,0.575781,
2008-06-12, 00:05:04,VALID,1005.18,VALID,0,VALID,93.0723,VALID,0,VALID,24.2504,VALID,343,VALID,0.283984,
2008-06-12, 00:06:04,VALID,1005.16,VALID,0,VALID,93.0952,VALID,0,VALID,24.231,VALID,344,VALID,0.637109,
2008-06-12, 00:07:04,VALID,1005.13,VALID,0.5,VALID,93.2554,VALID,0,VALID,24.2115,VALID,346,VALID,0.387891,
2008-06-12, 00:08:04,VALID,1005.11,VALID,0,VALID,93.3699,VALID,0,VALID,24.231,VALID,347,VALID,0.511719,
2008-06-12, 00:09:04,VALID,1005.08,VALID,0,VALID,93.4767,VALID,0,VALID,24.2115,VALID,347,VALID,0.263281,
2008-06-12, 00:10:04,VALID,1005.1,VALID,0,VALID,93.5835,VALID,0,VALID,24.2115,VALID,347,VALID,0.144141,
2008-06-12, 00:11:04,VALID,1005.08,VALID,0,VALID,93.6826,VALID,0,VALID,24.231,VALID,347,VALID,0,
2008-06-12, 00:12:04,VALID,1005.08,VALID,0,VALID,93.7818,VALID,0,VALID,24.2097,VALID,347,VALID,0,
2008-06-12, 00:13:04,VALID,1005.07,VALID,0,VALID,93.8276,VALID,0,VALID,24.2115,VALID,347,VALID,0,
2008-06-12, 00:14:04,VALID,1005.02,VALID,0,VALID,93.8505,VALID,0,VALID,24.2115,VALID,347,VALID,0,
2008-06-12, 00:15:04,VALID,1005.03,VALID,0,VALID,93.7132,VALID,0,VALID,24.192,VALID,347,VALID,0.164063,
2008-06-12, 00:16:04,VALID,1005,VALID,0.5,VALID,93.7742,VALID,0,VALID,24.1531,VALID,347,VALID,0.107031,
2008-06-12, 00:17:04,VALID,1004.96,VALID,0,VALID,93.8352,VALID,0,VALID,24.1336,VALID,347,VALID,0,
2008-06-12, 00:18:04,VALID,1004.91,VALID,0,VALID,93.8505,VALID,0,VALID,24.1355,VALID,347,VALID,0,
2008-06-12, 00:19:04,VALID,1004.86,VALID,0,VALID,93.8734,VALID,0,VALID,24.1142,VALID,347,VALID,0,
2008-06-12, 00:20:04,VALID,1004.83,VALID,0,VALID,93.9344,VALID,0,VALID,24.1142,VALID,347,VALID,0,
2008-06-12, 00:21:04,VALID,1004.78,VALID,0,VALID,93.9954,VALID,0,VALID,24.1142,VALID,347,VALID,0,
2008-06-12, 00:22:04,VALID,1004.79,VALID,0,VALID,93.9344,VALID,0,VALID,24.1142,VALID,347,VALID,0,
2008-06-12, 00:23:04,VALID,1004.76,VALID,0,VALID,93.8886,VALID,0,VALID,24.0752,VALID,347,VALID,0,
2008-06-12, 00:24:04,VALID,1004.72,VALID,0,VALID,94.0107,VALID,0,VALID,24.0557,VALID,347,VALID,0,
2008-06-12, 00:25:04,VALID,1004.72,VALID,0,VALID,94.1099,VALID,0,VALID,24.0752,VALID,347,VALID,0,
2008-06-12, 00:26:04,VALID,1004.69,VALID,0,VALID,94.1556,VALID,0,VALID,24.0752,VALID,347,VALID,0,
2008-06-12, 00:27:04,VALID,1004.65,VALID,0,VALID,94.1938,VALID,0,VALID,24.0557,VALID,347,VALID,0,
2008-06-12, 00:28:04,VALID,1004.64,VALID,0,VALID,94.1633,VALID,0,VALID,24.0363,VALID,347,VALID,0,
2008-06-12, 00:29:04,VALID,1004.61,VALID,0,VALID,94.1938,VALID,0,VALID,24.0168,VALID,347,VALID,0,
2008-06-12, 00:30:04,VALID,1004.56,VALID,0,VALID,94.2167,VALID,0,VALID,24.0168,VALID,347,VALID,0,
2008-06-12, 00:31:04,VALID,1004.54,VALID,0,VALID,94.3082,VALID,0,VALID,24.0168,VALID,347,VALID,0,
2008-06-12, 00:32:04,VALID,1004.54,VALID,0,VALID,94.3387,VALID,0,VALID,23.9955,VALID,347,VALID,0,
2008-06-12, 00:33:04,VALID,1004.54,VALID,0,VALID,94.3692,VALID,0,VALID,24.0363,VALID,347,VALID,0,
2008-06-12, 00:34:04,VALID,1004.51,VALID,0,VALID,94.5371,VALID,0,VALID,24.0363,VALID,1,VALID,0,
2008-06-12, 00:35:04,VALID,1004.51,VALID,0,VALID,94.6057,VALID,0,VALID,24.0557,VALID,18,VALID,0,
2008-06-12, 00:36:04,VALID,1004.49,VALID,0,VALID,94.5829,VALID,0,VALID,24.0539,VALID,18,VALID,0,
2008-06-12, 00:37:04,VALID,1004.44,VALID,0,VALID,94.5371,VALID,0,VALID,24.015,VALID,18,VALID,0.269531,
2008-06-12, 00:38:04,VALID,1004.39,VALID,0,VALID,94.4532,VALID,0,VALID,23.9973,VALID,30,VALID,0.85625,
2008-06-12, 00:39:04,VALID,1004.38,VALID,0,VALID,94.4379,VALID,0,VALID,23.9584,VALID,30,VALID,0.716016,
2008-06-12, 00:40:04,VALID,1004.36,VALID,0,VALID,94.621,VALID,0,VALID,23.9371,VALID,29,VALID,0.505859,
2008-06-12, 00:41:04,VALID,1004.31,VALID,0.5,VALID,94.6668,VALID,0,VALID,23.9371,VALID,28,VALID,0.444922,
2008-06-12, 00:42:04,VALID,1004.31,VALID,0,VALID,94.5676,VALID,0,VALID,23.9195,VALID,22,VALID,0.475391,
2008-06-12, 00:43:04,VALID,1004.26,VALID,0,VALID,94.6973,VALID,0,VALID,23.9195,VALID,21,VALID,0.0882813,
2008-06-12, 00:44:04,VALID,1004.22,VALID,0,VALID,94.7507,VALID,0,VALID,23.9195,VALID,20,VALID,0.337891,
2008-06-12, 00:45:04,VALID,1004.19,VALID,0,VALID,94.8346,VALID,0,VALID,23.9389,VALID,20,VALID,0.00273437,
2008-06-12, 00:46:04,VALID,1004.15,VALID,0,VALID,94.8728,VALID,0,VALID,23.9389,VALID,20,VALID,0,
2008-06-12, 00:47:04,VALID,1004.12,VALID,0,VALID,94.9185,VALID,0,VALID,23.9584,VALID,20,VALID,0.0957031,
2008-06-12, 00:48:04,VALID,1004.07,VALID,0.5,VALID,94.8956,VALID,0,VALID,23.9584,VALID,20,VALID,0.279297,
2008-06-12, 00:49:04,VALID,1004.03,VALID,0,VALID,94.8117,VALID,0,VALID,23.9584,VALID,16,VALID,0.55625,
2008-06-12, 00:50:04,VALID,1004.03,VALID,0,VALID,94.766,VALID,0,VALID,23.9389,VALID,356,VALID,0.626172,
2008-06-12, 00:51:04,VALID,1004,VALID,0,VALID,94.6897,VALID,0,VALID,23.9389,VALID,356,VALID,0.612891,
2008-06-12, 00:52:04,VALID,1004.01,VALID,0,VALID,94.7202,VALID,0,VALID,23.9,VALID,355,VALID,0.441797,
2008-06-12, 00:53:04,VALID,1004.01,VALID,0,VALID,94.7507,VALID,0,VALID,23.8805,VALID,354,VALID,0.325391,
2008-06-12, 00:54:04,VALID,1004.01,VALID,0.5,VALID,94.8499,VALID,0,VALID,23.8805,VALID,354,VALID,0.373047,
2008-06-12, 00:55:04,VALID,1003.99,VALID,0,VALID,94.8194,VALID,0,VALID,23.8805,VALID,354,VALID,0.323047,
2008-06-12, 00:56:04,VALID,1003.99,VALID,0,VALID,94.9033,VALID,0,VALID,23.8611,VALID,354,VALID,0.0855469,
2008-06-12, 00:57:04,VALID,1003.96,VALID,0,VALID,94.9796,VALID,0,VALID,23.8805,VALID,326,VALID,0.0195313,
2008-06-12, 00:58:04,VALID,1003.98,VALID,0,VALID,94.9872,VALID,0.100563,VALID,23.9,VALID,326,VALID,0,
2008-06-12, 00:59:04,VALID,1003.95,VALID,0,VALID,95.033,VALID,0,VALID,23.8805,VALID,326,VALID,0,
2008-06-12, 01:00:04,VALID,1003.98,VALID,0.5,VALID,95.0406,VALID,0,VALID,23.8787,VALID,326,VALID,0,
2008-06-12, 01:01:04,VALID,1003.97,VALID,0,VALID,95.0864,VALID,0,VALID,23.9,VALID,326,VALID,0,
2008-06-12, 01:02:04,VALID,1003.95,VALID,0,VALID,95.1169,VALID,0,VALID,23.9408,VALID,326,VALID,0,
2008-06-12, 01:03:04,VALID,1003.97,VALID,0,VALID,95.0787,VALID,0,VALID,23.8982,VALID,332,VALID,0.203125,
2008-06-12, 01:04:04,VALID,1003.97,VALID,0,VALID,94.9796,VALID,0,VALID,23.8787,VALID,348,VALID,0.483594,
2008-06-12, 01:05:04,VALID,1003.96,VALID,0.5,VALID,94.9262,VALID,0,VALID,23.8611,VALID,348,VALID,0.385547,
2008-06-12, 01:06:04,VALID,1003.96,VALID,0,VALID,95.0024,VALID,0,VALID,23.8416,VALID,357,VALID,0.210938,
2008-06-12, 01:07:04,VALID,1003.98,VALID,0,VALID,95.0558,VALID,0,VALID,23.8221,VALID,357,VALID,0.00664063,
2008-06-12, 01:08:04,VALID,1003.97,VALID,0,VALID,95.1169,VALID,0,VALID,23.8629,VALID,357,VALID,0.237109,
2008-06-12, 01:09:04,VALID,1004.02,VALID,0,VALID,95.1321,VALID,0,VALID,23.8027,VALID,357,VALID,0.00664063,
2008-06-12, 01:10:04,VALID,1004,VALID,0,VALID,95.1779,VALID,0,VALID,23.8221,VALID,357,VALID,0.2375,
2008-06-12, 01:11:04,VALID,1004,VALID,0,VALID,95.2389,VALID,0,VALID,23.8416,VALID,357,VALID,0.00195313,
2008-06-12, 01:12:04,VALID,1004.01,VALID,0,VALID,95.2618,VALID,0,VALID,23.8416,VALID,357,VALID,0.338672,
2008-06-12, 01:13:04,VALID,1004.01,VALID,0.5,VALID,95.2084,VALID,0,VALID,23.8416,VALID,350,VALID,0.258984,
2008-06-12, 01:14:04,VALID,1004.03,VALID,0,VALID,95.1932,VALID,0,VALID,23.8221,VALID,350,VALID,0.0898438,
2008-06-12, 01:15:04,VALID,1004.06,VALID,0,VALID,95.2161,VALID,0,VALID,23.8009,VALID,350,VALID,0.270703,
2008-06-12, 01:16:04,VALID,1004.04,VALID,0,VALID,95.2237,VALID,0,VALID,23.8434,VALID,350,VALID,0.19375,
2008-06-12, 01:17:04,VALID,1004.04,VALID,0,VALID,95.2084,VALID,0,VALID,23.8221,VALID,350,VALID,0.215625,
2008-06-12, 01:18:04,VALID,1004.07,VALID,0,VALID,95.2237,VALID,0,VALID,23.8009,VALID,350,VALID,0,
2008-06-12, 01:19:04,VALID,1004.06,VALID,0,VALID,95.2695,VALID,0,VALID,23.8027,VALID,350,VALID,0.00234375,
2008-06-12, 01:20:04,VALID,1004.07,VALID,0,VALID,95.1321,VALID,0,VALID,23.7637,VALID,350,VALID,0.319531,
2008-06-12, 01:21:04,VALID,1004.11,VALID,0,VALID,95.2389,VALID,0,VALID,23.7443,VALID,350,VALID,0.242578,
2008-06-12, 01:22:04,VALID,1004.11,VALID,0,VALID,95.3152,VALID,0,VALID,23.7443,VALID,350,VALID,0.167969,
2008-06-12, 01:23:04,VALID,1004.16,VALID,0,VALID,95.3152,VALID,0,VALID,23.7443,VALID,350,VALID,0.383984,
2008-06-12, 01:24:04,VALID,1004.16,VALID,0,VALID,95.3763,VALID,0,VALID,23.7637,VALID,350,VALID,0.2625,
2008-06-12, 01:25:04,VALID,1004.21,VALID,0,VALID,95.3839,VALID,0,VALID,23.7637,VALID,13,VALID,0.233203,
2008-06-12, 01:26:04,VALID,1004.22,VALID,0,VALID,95.2618,VALID,0,VALID,23.7443,VALID,13,VALID,0.39375,
2008-06-12, 01:27:04,VALID,1004.28,VALID,0.5,VALID,95.2923,VALID,0,VALID,23.7053,VALID,13,VALID,0.227734,
2008-06-12, 01:28:04,VALID,1004.28,VALID,0,VALID,95.3,VALID,0,VALID,23.7053,VALID,13,VALID,0.183984,
2008-06-12, 01:29:04,VALID,1004.33,VALID,0,VALID,95.3381,VALID,0,VALID,23.6859,VALID,13,VALID,0.322266,
2008-06-12, 01:30:04,VALID,1004.35,VALID,0,VALID,95.3,VALID,0,VALID,23.6664,VALID,57,VALID,0.646484,
2008-06-12, 01:31:04,VALID,1004.35,VALID,0,VALID,95.3152,VALID,0,VALID,23.6469,VALID,63,VALID,0.342187,
2008-06-12, 01:32:04,VALID,1004.35,VALID,0,VALID,95.3457,VALID,0,VALID,23.6275,VALID,63,VALID,0.346484,
2008-06-12, 01:33:04,VALID,1004.33,VALID,0,VALID,95.3457,VALID,0,VALID,23.608,VALID,63,VALID,0.441797,
2008-06-12, 01:34:04,VALID,1004.3,VALID,0,VALID,95.3076,VALID,0,VALID,23.5691,VALID,63,VALID,0.219141,
2008-06-12, 01:35:04,VALID,1004.3,VALID,0,VALID,95.3,VALID,0,VALID,23.5496,VALID,63,VALID,0.391016,
2008-06-12, 01:36:04,VALID,1004.25,VALID,0,VALID,95.2695,VALID,0,VALID,23.5107,VALID,62,VALID,0.549609,
2008-06-12, 01:37:04,VALID,1004.23,VALID,0.5,VALID,95.3152,VALID,0,VALID,23.4912,VALID,61,VALID,0.309766,
2008-06-12, 01:38:04,VALID,1004.18,VALID,0,VALID,95.3839,VALID,0,VALID,23.4718,VALID,60,VALID,0.296875,
2008-06-12, 01:39:04,VALID,1004.16,VALID,0,VALID,95.4831,VALID,0,VALID,23.4718,VALID,60,VALID,0.141016,
2008-06-12, 01:40:04,VALID,1004.18,VALID,0,VALID,95.4983,VALID,0,VALID,23.47,VALID,60,VALID,0.409766,
2008-06-12, 01:41:04,VALID,1004.16,VALID,0,VALID,95.5136,VALID,0,VALID,23.4505,VALID,60,VALID,0.349219,
2008-06-12, 01:42:04,VALID,1004.16,VALID,0,VALID,95.5212,VALID,0,VALID,23.4912,VALID,60,VALID,0.172656,
2008-06-12, 01:43:04,VALID,1004.15,VALID,0,VALID,95.5517,VALID,0,VALID,23.47,VALID,60,VALID,0,
2008-06-12, 01:44:04,VALID,1004.13,VALID,0,VALID,95.5822,VALID,0,VALID,23.47,VALID,60,VALID,0,
2008-06-12, 01:45:04,VALID,1004.13,VALID,0.5,VALID,95.628,VALID,0,VALID,23.4912,VALID,60,VALID,0.00742187,
2008-06-12, 01:46:04,VALID,1004.12,VALID,0,VALID,95.6128,VALID,0,VALID,23.4912,VALID,60,VALID,0,
2008-06-12, 01:47:04,VALID,1004.11,VALID,0,VALID,95.5975,VALID,0,VALID,23.4912,VALID,60,VALID,0,
2008-06-12, 01:48:04,VALID,1004.12,VALID,0,VALID,95.5975,VALID,0,VALID,23.4912,VALID,60,VALID,0,
2008-06-12, 01:49:04,VALID,1004.12,VALID,0,VALID,95.6662,VALID,0,VALID,23.4912,VALID,60,VALID,0,
2008-06-12, 01:50:04,VALID,1004.16,VALID,0,VALID,95.7196,VALID,0,VALID,23.4894,VALID,60,VALID,0,
2008-06-12, 01:51:04,VALID,1004.14,VALID,0,VALID,95.7043,VALID,0,VALID,23.5302,VALID,60,VALID,0,
2008-06-12, 01:52:04,VALID,1004.15,VALID,0,VALID,95.6967,VALID,0,VALID,23.5107,VALID,60,VALID,0,
2008-06-12, 01:53:04,VALID,1004.14,VALID,0,VALID,95.7043,VALID,0,VALID,23.5089,VALID,60,VALID,0.336719,
2008-06-12, 01:54:04,VALID,1004.12,VALID,0,VALID,95.6814,VALID,0,VALID,23.5302,VALID,60,VALID,0.319531,
2008-06-12, 01:55:04,VALID,1004.1,VALID,0,VALID,95.6509,VALID,0,VALID,23.47,VALID,92,VALID,0.603125,
2008-06-12, 01:56:04,VALID,1004.11,VALID,0,VALID,95.6128,VALID,0.100563,VALID,23.4505,VALID,92,VALID,0.641016,
2008-06-12, 01:57:04,VALID,1004.06,VALID,0,VALID,95.6356,VALID,0,VALID,23.4523,VALID,92,VALID,0.414063,
2008-06-12, 01:58:04,VALID,1004.06,VALID,0,VALID,95.6662,VALID,0,VALID,23.4116,VALID,91,VALID,0.302344,
2008-06-12, 01:59:04,VALID,1004.07,VALID,0,VALID,95.7043,VALID,0,VALID,23.4311,VALID,89,VALID,0.432031,
2008-06-12, 02:00:04,VALID,1004.08,VALID,0,VALID,95.6967,VALID,0,VALID,23.4328,VALID,89,VALID,0.444141,
2008-06-12, 02:01:04,VALID,1004.05,VALID,0,VALID,95.7119,VALID,0,VALID,23.4116,VALID,89,VALID,0.579687,
2008-06-12, 02:02:04,VALID,1004.06,VALID,0,VALID,95.7043,VALID,0,VALID,23.4328,VALID,89,VALID,0.801562,
2008-06-12, 02:03:04,VALID,1004.08,VALID,0,VALID,95.7653,VALID,0.100563,VALID,23.3921,VALID,101,VALID,0.604297,
2008-06-12, 02:04:04,VALID,1004.09,VALID,0,VALID,95.7424,VALID,0,VALID,23.3921,VALID,100,VALID,0.866797,
2008-06-12, 02:05:04,VALID,1004.11,VALID,0,VALID,95.7424,VALID,0,VALID,23.4134,VALID,93,VALID,0.883594,
2008-06-12, 02:06:04,VALID,1004.13,VALID,0,VALID,95.7196,VALID,0.100563,VALID,23.3727,VALID,80,VALID,0.7,
2008-06-12, 02:07:04,VALID,1004.13,VALID,0,VALID,95.7196,VALID,0,VALID,23.3727,VALID,57,VALID,0.477344,
2008-06-12, 02:08:04,VALID,1004.11,VALID,0,VALID,95.773,VALID,0,VALID,23.3744,VALID,39,VALID,0.639453,
2008-06-12, 02:09:04,VALID,1004.12,VALID,0,VALID,95.773,VALID,0,VALID,23.3727,VALID,28,VALID,1.20156,
2008-06-12, 02:10:04,VALID,1004.09,VALID,0,VALID,95.7959,VALID,0.100563,VALID,23.3939,VALID,30,VALID,1.00977,
2008-06-12, 02:11:04,VALID,1004.08,VALID,0,VALID,95.8187,VALID,0,VALID,23.3921,VALID,27,VALID,0.796484,
2008-06-12, 02:12:04,VALID,1004.05,VALID,0,VALID,95.834,VALID,0.100563,VALID,23.4116,VALID,23,VALID,0.502734,
2008-06-12, 02:13:04,VALID,1004.06,VALID,0,VALID,95.8721,VALID,0,VALID,23.4116,VALID,20,VALID,0.567578,
2008-06-12, 02:14:04,VALID,1004.01,VALID,0,VALID,95.8645,VALID,0,VALID,23.4311,VALID,359,VALID,0.540234,
2008-06-12, 02:15:04,VALID,1003.97,VALID,0,VALID,95.8798,VALID,0,VALID,23.4311,VALID,346,VALID,0.544531,
2008-06-12, 02:16:04,VALID,1003.97,VALID,0,VALID,95.8721,VALID,0,VALID,23.4718,VALID,348,VALID,0.602734,
2008-06-12, 02:17:04,VALID,1004,VALID,0,VALID,95.9255,VALID,0,VALID,23.47,VALID,354,VALID,0.621484,
2008-06-12, 02:18:04,VALID,1004,VALID,0,VALID,95.9637,VALID,0,VALID,23.5089,VALID,354,VALID,0.475781,
2008-06-12, 02:19:04,VALID,1004,VALID,0,VALID,95.9789,VALID,0.100563,VALID,23.5284,VALID,354,VALID,0.547266,
2008-06-12, 02:20:04,VALID,1004.02,VALID,0,VALID,95.9866,VALID,0,VALID,23.5691,VALID,354,VALID,0.46875,
2008-06-12, 02:21:04,VALID,1004.06,VALID,0,VALID,96.0018,VALID,0,VALID,23.6098,VALID,354,VALID,0.322656,
2008-06-12, 02:22:04,VALID,1004.08,VALID,0,VALID,95.9942,VALID,0,VALID,23.6293,VALID,354,VALID,0.228125,
2008-06-12, 02:23:04,VALID,1004.14,VALID,0,VALID,96.0095,VALID,0,VALID,23.6275,VALID,354,VALID,0.104297,
2008-06-12, 02:24:04,VALID,1004.16,VALID,0,VALID,95.9789,VALID,0,VALID,23.6682,VALID,354,VALID,0,
2008-06-12, 02:25:04,VALID,1004.18,VALID,0,VALID,95.9789,VALID,0,VALID,23.6664,VALID,354,VALID,0.00429688,
2008-06-12, 02:26:04,VALID,1004.22,VALID,0,VALID,95.9561,VALID,0,VALID,23.6877,VALID,354,VALID,0.165234,
2008-06-12, 02:27:04,VALID,1004.24,VALID,0,VALID,95.9561,VALID,0,VALID,23.6859,VALID,22,VALID,0.382422,
2008-06-12, 02:28:04,VALID,1004.26,VALID,0,VALID,95.895,VALID,0,VALID,23.6664,VALID,22,VALID,0.399219,
2008-06-12, 02:29:04,VALID,1004.25,VALID,0,VALID,95.8493,VALID,0,VALID,23.6275,VALID,22,VALID,0.284766,
2008-06-12, 02:30:04,VALID,1004.25,VALID,0,VALID,95.8569,VALID,0,VALID,23.6275,VALID,22,VALID,0,
2008-06-12, 02:31:04,VALID,1004.28,VALID,0.5,VALID,95.8645,VALID,0,VALID,23.6275,VALID,22,VALID,0.00390625,
2008-06-12, 02:32:04,VALID,1004.27,VALID,0,VALID,95.9332,VALID,0,VALID,23.6275,VALID,22,VALID,0.228906,
2008-06-12, 02:33:04,VALID,1004.25,VALID,0,VALID,95.9332,VALID,0,VALID,23.6682,VALID,22,VALID,0.0175781,
2008-06-12, 02:34:04,VALID,1004.24,VALID,0,VALID,95.9179,VALID,0,VALID,23.6487,VALID,22,VALID,0.1125,
2008-06-12, 02:35:04,VALID,1004.21,VALID,0,VALID,95.9637,VALID,0,VALID,23.6469,VALID,22,VALID,0.278906,
2008-06-12, 02:36:04,VALID,1004.24,VALID,0,VALID,96.0018,VALID,0,VALID,23.6469,VALID,22,VALID,0.366406,
2008-06-12, 02:37:04,VALID,1004.22,VALID,0,VALID,95.9866,VALID,0,VALID,23.7071,VALID,22,VALID,0.0828125,
2008-06-12, 02:38:04,VALID,1004.2,VALID,0,VALID,95.9713,VALID,0,VALID,23.6859,VALID,22,VALID,0,
2008-06-12, 02:39:04,VALID,1004.22,VALID,0,VALID,96.0247,VALID,0,VALID,23.7248,VALID,22,VALID,0.416797,
2008-06-12, 02:40:04,VALID,1004.19,VALID,0,VALID,96.0552,VALID,0,VALID,23.7443,VALID,16,VALID,0.416797,
2008-06-12, 02:41:04,VALID,1004.22,VALID,0,VALID,96.0781,VALID,0,VALID,23.7832,VALID,11,VALID,0,
2008-06-12, 02:42:04,VALID,1004.17,VALID,0,VALID,96.0857,VALID,0,VALID,23.8027,VALID,11,VALID,0.214453,
2008-06-12, 02:43:04,VALID,1004.18,VALID,0,VALID,96.0781,VALID,0,VALID,23.8221,VALID,11,VALID,0.0269531,
2008-06-12, 02:44:04,VALID,1004.17,VALID,0,VALID,96.101,VALID,0,VALID,23.8203,VALID,11,VALID,0.116797,
2008-06-12, 02:45:04,VALID,1004.14,VALID,0.5,VALID,96.0857,VALID,0,VALID,23.8805,VALID,11,VALID,0.333594,
2008-06-12, 02:46:04,VALID,1004.16,VALID,0,VALID,96.0857,VALID,0,VALID,23.9195,VALID,11,VALID,0.0121094,
2008-06-12, 02:47:04,VALID,1004.17,VALID,0,VALID,96.0781,VALID,0,VALID,23.9195,VALID,11,VALID,0.234375,
2008-06-12, 02:48:04,VALID,1004.17,VALID,0,VALID,96.0552,VALID,0,VALID,23.9584,VALID,11,VALID,0.0585938,
2008-06-12, 02:49:04,VALID,1004.16,VALID,0,VALID,96.0552,VALID,0,VALID,23.9797,VALID,11,VALID,0.046875,
2008-06-12, 02:50:04,VALID,1004.13,VALID,0,VALID,96.0247,VALID,0.100563,VALID,23.9779,VALID,11,VALID,0.170312,
2008-06-12, 02:51:04,VALID,1004.16,VALID,0,VALID,96.0018,VALID,0,VALID,23.9779,VALID,11,VALID,0.301172,
2008-06-12, 02:52:04,VALID,1004.13,VALID,0,VALID,95.9942,VALID,0,VALID,23.9584,VALID,358,VALID,0.146484,
2008-06-12, 02:53:04,VALID,1004.09,VALID,0,VALID,96.0323,VALID,0,VALID,23.9779,VALID,358,VALID,0.189063,
2008-06-12, 02:54:04,VALID,1004.06,VALID,0,VALID,96.0552,VALID,0,VALID,23.9973,VALID,358,VALID,0.0886719,
2008-06-12, 02:55:04,VALID,1003.96,VALID,0.5,VALID,96.04,VALID,0,VALID,23.9761,VALID,358,VALID,0.113672,
2008-06-12, 02:56:04,VALID,1003.57,VALID,0,VALID,96.0323,VALID,0,VALID,24.0168,VALID,356,VALID,0.303125,
2008-06-12, 02:57:04,VALID,1002.96,VALID,0,VALID,96.0323,VALID,0,VALID,24.015,VALID,327,VALID,0.465625,
2008-06-12, 02:58:04,VALID,1003.27,VALID,0,VALID,96.0247,VALID,0,VALID,24.0363,VALID,288,VALID,0.440625,
2008-06-12, 02:59:04,VALID,1003.06,VALID,0,VALID,96.0095,VALID,0,VALID,24.0168,VALID,327,VALID,0.34375,
2008-06-12, 07:08:04,VALID,1005.54,VALID,0,VALID,95.3076,VALID,32.683,VALID,23.7053,VALID,352,VALID,0.144531,
2008-06-12, 07:09:04,VALID,1005.51,VALID,0,VALID,95.3915,VALID,34.1914,VALID,23.723,VALID,350,VALID,0.0503906,
2008-06-12, 07:10:04,VALID,1005.54,VALID,0,VALID,95.3076,VALID,34.9959,VALID,23.723,VALID,295,VALID,0.725,
2008-06-12, 07:11:04,VALID,1005.54,VALID,0,VALID,95.3076,VALID,35.197,VALID,23.7425,VALID,294,VALID,0.841797,
2008-06-12, 07:12:04,VALID,1005.51,VALID,0,VALID,95.1779,VALID,34.4931,VALID,23.7619,VALID,296,VALID,1.16016,
2008-06-12, 07:13:04,VALID,1005.55,VALID,0,VALID,95.2313,VALID,33.1858,VALID,23.7832,VALID,292,VALID,0.505469,
2008-06-12, 07:14:04,VALID,1005.78,VALID,0,VALID,95.2008,VALID,32.9846,VALID,23.8027,VALID,287,VALID,0.694922,
2008-06-12, 07:15:04,VALID,1005.57,VALID,0,VALID,95.2237,VALID,33.3869,VALID,23.8416,VALID,284,VALID,0.140234,
2008-06-12, 07:16:04,VALID,1005.62,VALID,0,VALID,95.2084,VALID,36.0015,VALID,23.8611,VALID,295,VALID,0.38125,
2008-06-12, 07:17:04,VALID,1005.63,VALID,0,VALID,95.1398,VALID,37.9122,VALID,23.8593,VALID,281,VALID,0.871094,
2008-06-12, 07:18:04,VALID,1005.66,VALID,0,VALID,95.1627,VALID,40.4263,VALID,23.8787,VALID,283,VALID,0.192188,
2008-06-12, 07:19:04,VALID,1005.67,VALID,0,VALID,95.0482,VALID,41.6331,VALID,23.9177,VALID,289,VALID,0.873047,
2008-06-12, 07:20:04,VALID,1005.69,VALID,0,VALID,95.0101,VALID,41.9347,VALID,23.9389,VALID,296,VALID,0.528906,
2008-06-12, 07:21:04,VALID,1005.69,VALID,0,VALID,95.0406,VALID,41.5325,VALID,23.9177,VALID,284,VALID,0.54375,
2008-06-12, 07:22:04,VALID,1005.65,VALID,0,VALID,95.033,VALID,39.9235,VALID,23.9584,VALID,289,VALID,0.432031,
2008-06-12, 07:23:04,VALID,1005.64,VALID,0,VALID,95.0482,VALID,39.8229,VALID,23.9371,VALID,291,VALID,0.193359,
2008-06-12, 07:24:04,VALID,1005.63,VALID,0,VALID,95.1016,VALID,40.3257,VALID,23.9955,VALID,288,VALID,0.315234,
2008-06-12, 07:25:04,VALID,1005.59,VALID,0,VALID,95.1169,VALID,42.5381,VALID,23.9955,VALID,303,VALID,0.512891,
2008-06-12, 07:26:04,VALID,1005.6,VALID,0,VALID,95.0558,VALID,46.6612,VALID,23.9955,VALID,338,VALID,0.558984,
2008-06-12, 07:27:04,VALID,1005.6,VALID,0,VALID,95.1169,VALID,48.8736,VALID,24.0557,VALID,321,VALID,0.385156,
2008-06-12, 07:28:04,VALID,1005.61,VALID,0,VALID,95.0253,VALID,49.1753,VALID,24.0345,VALID,336,VALID,0.35625,
2008-06-12, 07:29:04,VALID,1005.63,VALID,0,VALID,95.0711,VALID,50.382,VALID,24.0539,VALID,344,VALID,0.248047,
2008-06-12, 07:30:04,VALID,1005.66,VALID,0,VALID,95.0711,VALID,50.382,VALID,24.0752,VALID,356,VALID,0.214844,
2008-06-12, 07:31:04,VALID,1005.7,VALID,0,VALID,95.1093,VALID,50.4826,VALID,24.0929,VALID,356,VALID,0.119922,
2008-06-12, 07:32:04,VALID,1005.76,VALID,0,VALID,95.094,VALID,50.2815,VALID,24.0929,VALID,357,VALID,0.29375,
2008-06-12, 07:33:04,VALID,1005.79,VALID,0,VALID,95.1016,VALID,49.5775,VALID,24.1123,VALID,350,VALID,0.234375,
2008-06-12, 07:34:04,VALID,1005.87,VALID,0,VALID,95.1245,VALID,48.3708,VALID,24.1123,VALID,350,VALID,0.166797,
2008-06-12, 07:35:04,VALID,1005.89,VALID,0,VALID,95.0253,VALID,46.3595,VALID,24.1336,VALID,350,VALID,0.207813,
2008-06-12, 07:36:04,VALID,1005.96,VALID,0,VALID,95.0024,VALID,44.3483,VALID,24.1123,VALID,350,VALID,0.2375,
2008-06-12, 07:37:04,VALID,1005.99,VALID,0,VALID,95.0711,VALID,42.8398,VALID,24.1123,VALID,332,VALID,0.377734,
2008-06-12, 07:38:04,VALID,1005.98,VALID,0,VALID,95.033,VALID,43.0409,VALID,24.1318,VALID,346,VALID,0.303906,
2008-06-12, 07:39:04,VALID,1005.98,VALID,0,VALID,95.0024,VALID,43.7449,VALID,24.1336,VALID,356,VALID,0.663281,
2008-06-12, 07:40:04,VALID,1005.96,VALID,0,VALID,95.0406,VALID,44.9516,VALID,24.1531,VALID,358,VALID,0.537109,
2008-06-12, 07:41:04,VALID,1005.92,VALID,0,VALID,95.0635,VALID,46.0578,VALID,24.1726,VALID,5,VALID,1.1543,
2008-06-12, 07:42:04,VALID,1005.9,VALID,0.5,VALID,95.0558,VALID,47.2646,VALID,24.1707,VALID,6,VALID,0.410547,
2008-06-12, 07:43:04,VALID,1005.86,VALID,0,VALID,95.094,VALID,48.2702,VALID,24.1902,VALID,3,VALID,0.393359,
2008-06-12, 07:44:04,VALID,1005.86,VALID,0,VALID,95.094,VALID,48.8736,VALID,24.231,VALID,13,VALID,0.576563,
2008-06-12, 07:45:04,VALID,1005.85,VALID,0,VALID,95.1093,VALID,49.5775,VALID,24.2504,VALID,350,VALID,0.225,
2008-06-12, 07:46:04,VALID,1005.85,VALID,0,VALID,95.1016,VALID,50.4826,VALID,24.2699,VALID,301,VALID,0.307813,
2008-06-12, 07:47:04,VALID,1005.87,VALID,0,VALID,95.1321,VALID,51.4882,VALID,24.2894,VALID,300,VALID,0.164844,
2008-06-12, 07:48:04,VALID,1005.86,VALID,0,VALID,95.0787,VALID,52.2927,VALID,24.3088,VALID,217,VALID,0.537109,
2008-06-12, 07:49:04,VALID,1005.91,VALID,0,VALID,95.033,VALID,53.3989,VALID,24.2894,VALID,348,VALID,0.405859,
2008-06-12, 07:50:04,VALID,1005.89,VALID,0,VALID,95.0711,VALID,54.2034,VALID,24.3088,VALID,30,VALID,0.444141,
2008-06-12, 07:51:04,VALID,1005.94,VALID,0,VALID,95.0024,VALID,54.6057,VALID,24.3088,VALID,292,VALID,0.862109,
2008-06-12, 07:52:04,VALID,1005.93,VALID,0,VALID,95.0253,VALID,54.5051,VALID,24.3283,VALID,289,VALID,0.773438,